Location: Aurignac
(43.2170°N, 0.8818°E)
Time: 20:44:44
(UTC+00:00)

Daily predictions for brighter satellites

Satellite Brightness Start Highest point End
(mag) Time Altitude Azimuth Time Altitude Azimuth Time Altitude Azimuth
Cosmos 2227 Rocket 2.2 17:21:25 10° SSW 17:27:03 76° ESE 17:32:43 10° NNE
CZ-4 R/B 2.4 17:28:26 10° ESE 17:31:49 26° ENE 17:35:16 10° NNE
YAOGAN 6 3.1 17:29:34 10° SE 17:33:00 39° ENE 17:36:25 10° N
ATLAS CENTAUR R/B 2.3 17:32:21 10° NNW 17:35:44 25° NE 17:38:54 10° E
Shenzhou-11 Module 1.7 17:33:10 10° W 17:35:52 76° S 17:38:33 10° E
Cosmos 1825 Rocket 3.5 17:33:07 10° S 17:37:25 68° E 17:41:44 10° NNE
Meteor 1-21 Rocket 4.2 17:32:03 10° S 17:37:39 77° E 17:43:23 10° NNE
IRS-1C Rocket 4.4 17:33:41 10° S 17:38:55 74° WSW 17:44:12 10° NNW
Cosmos 1340 Rocket 4.1 17:35:34 10° NNW 17:39:22 45° W 17:43:12 10° SSW
Cosmos 2366 rocket 4.3 17:34:31 10° SSE 17:40:22 45° E 17:46:19 10° NNE
NOAA 12 4.1 17:35:29 10° SSE 17:40:42 82° ENE 17:45:59 10° NNW
FengYun 1-2 T 4.4 17:37:52 10° SSE 17:43:22 57° ENE 17:48:55 10° N
USA 234 3.3 17:37:30 10° ESE 17:44:01 76° NE 17:50:34 10° NW
Okean O Rocket 4.5 17:42:18 10° SSW 17:45:48 23° W 17:49:20 10° NW
Cosmos 2221 3.9 17:48:58 10° NNE 17:51:51 17° ENE 17:54:45 10° ESE
Okean-O 2.6 17:49:43 10° SSE 17:54:08 86° ENE 17:58:36 10° NNW
Cosmos 44 3.4 17:52:37 10° SW 17:57:12 67° NW 18:01:36 10° NNE
Cosmos-2242 3.0 17:54:22 10° N 17:58:41 86° W 18:02:57 10° S
BREEZE-M DEB (TANK) 4.4 17:55:34 10° SSW 17:59:27 26° SSE 18:01:02 16° E
Cosmos 1356 Rocket 3.9 17:56:12 10° N 17:59:57 35° ENE 18:03:45 10° SE
ADEOS Rocket 4.1 17:55:15 10° NE 18:01:11 30° E 18:07:29 10° SSE
SKYMED 2 3.5 17:59:08 10° NNE 18:03:30 73° ESE 18:07:49 10° S
Cosmos 1703 3.2 18:00:07 10° S 18:04:03 69° E 18:08:01 10° NNE
ATLAS 5 CENTAUR R/B 4.4 18:00:02 10° NNW 18:04:18 28° NE 18:15:54 10° E
CZ-4 R/B 4.3 18:05:50 10° SSE 18:09:56 76° ENE 18:14:04 10° N
Cosmos 1727 Rocket 4.0 18:04:58 10° N 18:11:04 56° ENE 18:17:06 10° SSE
SL-8 Rocket 4.2 18:07:26 10° S 18:13:45 80° W 18:20:04 10° N
YAOGAN 1 2.5 18:12:54 10° SSE 18:17:10 62° ENE 18:21:27 10° N
CSL-04 Rocket 3.7 18:11:55 10° SSE 18:17:20 61° ENE 18:22:48 10° N
Cosmos 2237 Rocket 4.3 18:14:56 10° NW 18:19:45 30° WSW 18:24:33 10° SSW
Cosmos 1455 2.8 18:16:32 10° NNW 18:20:16 57° W 18:23:58 10° S
Cosmos 2251 Rocket 3.5 18:19:39 10° NNW 18:24:59 88° WSW 18:30:20 10° SSE
H-2A R/B 3.6 18:27:12 17° NE 18:27:12 17° NE 18:29:18 10° NNE
Cosmos 1939 Rocket 2.8 18:22:57 10° SSE 18:26:48 58° ENE 18:30:45 10° N
CZ-2D R/B 3.1 18:27:18 10° SSE 18:31:05 65° ENE 18:34:56 10° N
Cosmos 44 Rocket 3.3 18:34:40 10° SSW 18:39:23 59° ESE 18:41:15 34° NE
SL-16 R/B 3.1 18:39:54 10° NW 18:45:22 51° WSW 18:50:48 10° S
Cosmos 1821 Rocket 4.0 18:41:25 10° S 18:47:39 61° E 18:53:50 10° NNE
Cosmos 2227 4.3 18:42:39 10° S 18:48:14 56° ESE 18:50:52 31° NE
COSMO-SKYMED 1 4.2 18:47:31 10° N 18:51:28 34° WNW 18:55:22 10° SW
USA 267 4.3 18:48:27 17° NE 18:52:44 36° NNW 18:58:33 10° W
Cosmos 1842 Rocket 3.7 18:49:37 10° N 18:54:07 79° W 18:58:35 10° S
Cosmos 1371 Rocket 4.2 18:51:06 10° S 18:55:59 45° ESE 18:56:02 45° ESE
SL-8 R/B 4.3 18:53:35 10° W 18:58:14 46° N 18:59:13 40° NNE
Cosmos 2297 Rocket 4.3 18:54:03 10° W 18:58:23 22° NW 19:02:44 10° N
Cosmos 1603 3.6 18:52:50 10° NNW 18:58:28 61° ENE 19:00:32 38° SE
Atlas Centaur 2 3.7 18:55:20 10° SW 18:58:30 18° S 19:00:09 16° SSE
Cosmos 2098 4.5 18:55:52 10° SSW 18:58:55 73° W 18:59:03 71° WNW
DELTA 2 R/B (1) 4.4 18:53:50 10° W 18:59:07 44° SSW 19:01:40 27° SE
Cosmos 1190 Rocket 4.4 18:54:58 10° N 18:59:35 43° NE 18:59:35 43° NE
Cosmos 407 Rocket 3.6 18:55:05 10° N 19:00:15 51° ENE 19:00:24 50° ENE
Meteor 1-27 4.4 18:57:08 10° NNW 19:02:42 73° W 19:08:15 10° S
ARGOS 4.4 19:05:26 26° NNE 19:05:26 26° NNE 19:08:06 10° N
ISS -1.6 19:02:45 10° WNW 19:04:54 20° NNW 19:04:54 20° NNW
Cosmos 2263 Rocket 2.1 19:00:05 10° S 19:05:31 59° ESE 19:06:18 54° ENE
CZ-4 R/B 3.6 19:03:15 10° SSW 19:06:45 27° W 19:10:20 10° NW
CENTAUR R/B 4.2 19:03:35 10° SSE 19:04:35 14° SSE 19:04:35 14° SSE
Shenzhou-11 Module 4.4 19:08:12 10° W 19:09:17 21° W 19:09:17 21° W
NOSS 3-2 (A) 3.5 19:05:50 10° SSW 19:11:16 50° ESE 19:11:18 50° ESE
Cosmos 2227 Rocket 4.5 19:07:43 10° W 19:11:44 20° NW 19:15:47 10° N
Timation 1 Rocket 4.2 19:07:55 10° SSW 19:13:49 65° ESE 19:14:46 57° ENE
ATLAS CENTAUR R/B 2.8 19:11:10 10° NW 19:14:42 32° WSW 19:16:34 20° SSW
Cosmos 2123 Rocket 3.9 19:09:17 10° N 19:15:31 58° ENE 19:16:36 51° ESE
Ariane Rocket 2.9 19:14:56 10° SSE 19:20:00 83° WSW 19:25:07 10° NNW
CZ-2C R/B 4.5 19:22:59 27° NNE 19:22:59 27° NNE 19:25:42 10° N
Cosmos 1934 Rocket 3.8 19:14:57 10° S 19:20:57 68° E 19:22:15 53° NE
Cosmos 1624 Rocket 4.2 19:18:05 10° S 19:22:26 58° SSE 19:22:26 58° SSE
Cosmos 1943 3.0 19:23:24 10° NNW 19:29:00 81° NE 19:29:00 81° NE
Cosmos 2221 3.7 19:25:35 10° NNW 19:29:37 41° W 19:33:39 10° SSW
Cosmos 2056 Rocket 4.0 19:33:49 10° SSW 19:37:45 52° SSW 19:37:45 52° SSW
Cosmos 1535 Rocket 4.4 19:34:34 10° S 19:40:54 86° W 19:47:19 10° N
Cosmos 614 Rocket 4.3 19:37:55 10° NNW 19:43:04 62° WSW 19:43:04 62° WSW
ADEOS Rocket 3.9 19:40:15 10° N 19:46:51 57° WNW 19:54:05 10° SW
USA 238 DEB 3.6 19:44:28 10° SW 19:51:09 82° NW 19:51:29 79° N
USA 238 3.6 19:44:36 10° SW 19:51:16 82° NW 19:51:32 80° NNW
H-2A R/B 3.9 20:07:48 23° NNW 20:07:48 23° NNW 20:09:43 10° NNW
Cosmos 2263 Rocket 4.4 20:45:28 10° WSW 20:48:04 20° WNW 20:48:04 20° WNW
FALCON 9 R/B 4.4 20:43:55 10° WSW 20:49:28 25° SW 20:49:28 25° SW
